Regional Weather Roundup
Issued by NWS

Home | Current Version | Previous Version | Text Only | Print | Product List | Glossary On
Versions: 1 2 3 4 5 6 7 8 9 10 11 12 13 14 15 16 17 18 19 20 21 22 23 24 25 26 27 28 29 30 31 32 33 34 35 36 37 38 39 40 41 42 43 44 45 46 47 48 49 50
000
ASUS42 KKEY 300410
RWRKEY

FLORIDA REGIONAL WEATHER ROUNDUP FOR THE FLORIDA KEYS
NATIONAL WEATHER SERVICE KEY WEST FLORIDA
1200 AM EDT MON MAY 30 2016

...SOUTH FLORIDA AND THE KEYS...

CITY           SKY/WX    TMP DP  RH WIND       PRES   REMARKS
FORT MYERS     MOCLDY    74  68  81 E3        30.03F
SW REGIONAL AP MOCLDY    73  67  81 E3        30.04F
NAPLES           N/A     74  68  81 MISG      30.03F
MIAMI          MOCLDY    80  70  71 S3        30.04F
WEST KENDALL   PTCLDY    76  71  85 NW3       30.04F
HOMESTEAD      PTCLDY    78  71  81 CALM      30.03F
MARATHON       LGT RAIN  80  72  76 NE8       30.02F
BOCA CHICA NAS CLEAR     81  71  71 NE5       30.03F
KEY WEST INTL  PTCLDY    82  72  71 NE6       30.04S

...INTERNATIONAL WEATHER...

CITY           SKY/WX    TMP DP  RH WIND       PRES   REMARKS
NASSAU BAHAMAS PTCLDY    79  77  94 NE5       30.04F
CANCUN MEXICO  PTCLDY    82  75  78 NE8       30.00R
COZUMEL MEXICO PTCLDY    75  73  94 E5        29.99S

ADJACENT COASTAL WATERS...

STATION/POSITION TIME  SKY/WX   TEMP    WIND        PRES    WAVE
                                AIR SEA DIR/SP/G            HT/PER
                 (UTC)          (F)     (DEG/KT/KT) (MB)    (FT/S)
PULASKI SHOAL LI 0400            81      40/  5/  6 1017.3F
SAND KEY         0350            82     140/  6/  9 1017.5F
SOMBRERO KEY     NOT AVBL
LONG KEY         0300            82 87   80/  9/ 10 1017.5S
MOLASSES REEF    NOT AVBL
FOWEY ROCKS      0400            81 82   80/  3/  4 1017.5F

$$



USA.gov is the U.S. government's official web portal to all federal, state and local government web resources and services.